GW4275 Weather Reports


time (UTC)temp
C
wind
direction
speed
KPH
gust
KPH
rain 1hr
cm
rain 24hr
cm
rain mn
cm
humidity
%
barometer
mb
20260504215008 23 157 0.0 4.8 0.00 0.00 0.00 27 1005.2
20260504214509 23 170 0.0 4.8 0.00 0.00 0.00 27 1005.2
20260504214003 23 147 0.0 8.0 0.00 0.00 0.00 29 1005.3
20260504213503 23 169 1.6 8.0 0.00 0.00 0.00 28 1005.3
20260504212503 23 136 0.0 6.4 0.00 0.00 0.00 28 1005.3
20260504212007 23 132 1.6 4.8 0.00 0.00 0.00 29 1005.4
20260504211518 23 290 0.0 4.8 0.00 0.00 0.00 27 1005.5
20260504211007 23 159 1.6 3.2 0.00 0.00 0.00 27 1005.5
20260504210512 23 131 1.6 3.2 0.00 0.00 0.00 27 1005.6
20260504205507 23 151 0.0 3.2 0.00 0.00 0.00 27 1005.6
20260504205014 24 98 1.6 3.2 0.00 0.00 0.00 28 1005.5
20260504204523 24 101 0.0 4.8 0.00 0.00 0.00 28 1005.6
20260504204009 24 352 1.6 4.8 0.00 0.00 0.00 27 1005.7
20260504203512 24 109 0.0 3.2 0.00 0.00 0.00 27 1005.7
20260504203010 24 288 0.0 4.8 0.00 0.00 0.00 29 1005.6
20260504202506 24 284 1.6 4.8 0.00 0.00 0.00 27 1005.7
20260504202006 25 300 1.6 4.8 0.00 0.00 0.00 27 1005.6
20260504201008 24 288 1.6 6.4 0.00 0.00 0.00 28 1005.8
20260504200506 24 136 1.6 4.8 0.00 0.00 0.00 30 1005.9
20260504195507 24 126 1.6 6.4 0.00 0.00 0.00 27 1006.2
20260504195008 24 31 1.6 8.0 0.00 0.00 0.00 29 1006.1
20260504194010 23 279 1.6 12.9 0.00 0.00 0.00 32 1006.5
20260504193511 23 143 1.6 3.2 0.00 0.00 0.00 31 1006.6
20260504193024 23 83 0.0 4.8 0.00 0.00 0.00 30 1006.7
20260504192512 24 311 1.6 4.8 0.00 0.00 0.00 28 1006.7
20260504192012 24 352 0.0 4.8 0.00 0.00 0.00 31 1006.9
20260504191003 23 336 1.6 6.4 0.00 0.00 0.00 31 1006.9
20260504190510 23 59 1.6 3.2 0.00 0.00 0.00 31 1007.0
20260504190021 23 71 0.0 3.2 0.00 0.00 0.00 32 1007.1
20260504185506 23 26 0.0 3.2 0.00 0.00 0.00 32 1007.0
20260504185006 24 153 1.6 3.2 0.00 0.00 0.00 29 1007.1
20260504184012 23 113 1.6 9.7 0.00 0.00 0.00 31 1007.2
20260504183503 22 16 1.6 9.7 0.00 0.00 0.00 32 1007.2
20260504183003 23 146 3.2 8.0 0.00 0.00 0.00 31 1007.3
20260504182504 23 51 1.6 6.4 0.00 0.00 0.00 31 1007.3
20260504182003 23 26 1.6 6.4 0.00 0.00 0.00 31 1007.4
20260504181504 23 38 1.6 4.8 0.00 0.00 0.00 34 1007.4
20260504181003 23 132 1.6 4.8 0.00 0.00 0.00 32 1007.5
20260504180503 23 44 0.0 3.2 0.00 0.00 0.00 34 1007.6
20260504180004 23 22 0.0 4.8 0.00 0.00 0.00 36 1007.7
20260504175502 22 126 1.6 4.8 0.00 0.00 0.00 35 1007.6
20260504175002 23 163 0.0 3.2 0.00 0.00 0.00 34 1007.6
20260504174503 22 313 1.6 4.8 0.00 0.00 0.00 34 1007.8
20260504174002 22 138 1.6 4.8 0.00 0.00 0.00 34 1007.8
20260504173505 23 15 1.6 4.8 0.00 0.00 0.00 33 1007.8
20260504173004 22 129 1.6 6.4 0.00 0.00 0.00 36 1007.8
20260504172507 22 23 1.6 6.4 0.00 0.00 0.00 36 1007.9
20260504172003 22 153 1.6 6.4 0.00 0.00 0.00 36 1007.9
20260504171504 22 267 1.6 6.4 0.00 0.00 0.00 35 1007.8
20260504171003 22 148 1.6 12.9 0.00 0.00 0.00 37 1007.9
20260504170503 22 9 3.2 12.9 0.00 0.00 0.00 35 1008.0
20260504151002 18 164 1.6 12.9 0.00 0.00 0.00 40 1009.0
20260504150504 18 152 1.6 6.4 0.00 0.00 0.00 39 1009.0
20260504140502 15 161 0.0 8.0 0.00 0.00 0.00 45 1009.8
20260504110506 10 84 0.0 3.2 0.00 0.00 0.00 55 1010.6
20260504100506 -17 0.0 0.0 0.00 0.00 0.00 1010.4
20260504082007 -17 0.0 0.0 0.00 0.00 0.00 1010.7
20260504081528 -17 0.0 0.0 0.00 0.00 0.00 1010.8
20260504081007 -17 0.0 0.0 0.00 0.00 0.00 1010.7
20260504080512 -17 0.0 0.0 0.00 0.00 0.00 1010.8
20260504050507 9 331 0.0 3.2 0.00 0.00 0.00 56 1011.1
20260504050024 10 330 0.0 3.2 0.00 0.00 0.00 55 1011.2
20260504045506 10 331 0.0 3.2 0.00 0.00 0.00 54 1011.3
20260504045005 10 333 0.0 3.2 0.00 0.00 0.00 54 1011.2
20260504044512 10 333 0.0 3.2 0.00 0.00 0.00 53 1011.2
20260504044003 10 333 0.0 3.2 0.00 0.00 0.00 54 1011.2
20260504043504 10 333 0.0 3.2 0.00 0.00 0.00 53 1011.2
20260504043012 9 333 0.0 3.2 0.00 0.00 0.00 58 1011.2
20260504042506 10 333 0.0 3.2 0.00 0.00 0.00 57 1011.2
20260504042004 10 333 0.0 3.2 0.00 0.00 0.00 55 1011.1
20260504041515 10 333 0.0 3.2 0.00 0.00 0.00 57 1011.1
20260504041006 10 333 0.0 3.2 0.00 0.00 0.00 56 1011.2
20260504040507 10 333 0.0 3.2 0.00 0.00 0.00 55 1011.2
20260504040022 10 333 0.0 3.2 0.00 0.00 0.00 54 1011.2
20260504035507 10 333 0.0 3.2 0.00 0.00 0.00 55 1011.2
20260504035007 10 331 0.0 3.2 0.00 0.00 0.00 56 1011.2
20260504034526 10 331 0.0 3.2 0.00 0.00 0.00 53 1011.2
20260504034010 10 313 0.0 3.2 0.00 0.00 0.00 55 1011.3
20260504033504 10 312 0.0 3.2 0.00 0.00 0.00 57 1011.4
20260504033007 10 312 0.0 3.2 0.00 0.00 0.00 55 1011.5
20260504032503 10 312 0.0 3.2 0.00 0.00 0.00 55 1011.5
20260504032003 10 312 0.0 3.2 0.00 0.00 0.00 56 1011.6
20260504031513 11 306 0.0 3.2 0.00 0.00 0.00 55 1011.6
20260504031002 11 306 0.0 3.2 0.00 0.00 0.00 55 1011.6
20260504030506 11 307 0.0 3.2 0.00 0.00 0.00 56 1011.5
20260504030022 11 306 0.0 3.2 0.00 0.00 0.00 58 1011.5
20260504025507 11 306 0.0 3.2 0.00 0.00 0.00 52 1011.5
20260504025009 11 306 0.0 3.2 0.00 0.00 0.00 54 1011.6
20260504024525 11 306 0.0 3.2 0.00 0.00 0.00 53 1011.6
20260504024008 11 306 0.0 3.2 0.00 0.00 0.00 49 1011.6
20260504023509 11 306 0.0 0.0 0.00 0.00 0.00 47 1011.7
20260504023025 11 306 0.0 3.2 0.00 0.00 0.00 47 1011.7
20260504022510 11 306 0.0 3.2 0.00 0.00 0.00 47 1011.8
20260504022004 11 306 0.0 3.2 0.00 0.00 0.00 47 1011.8
20260504021513 11 323 0.0 3.2 0.00 0.00 0.00 47 1011.8
20260504021003 11 323 0.0 3.2 0.00 0.00 0.00 51 1011.9
20260504020504 11 322 0.0 1.6 0.00 0.00 0.00 48 1011.9
20260504020020 11 322 0.0 1.6 0.00 0.00 0.00 48 1011.9
20260504015504 11 322 0.0 1.6 0.00 0.00 0.00 49 1011.8
20260504015005 11 322 0.0 0.0 0.00 0.00 0.00 48 1011.8
20260504014522 11 322 0.0 3.2 0.00 0.00 0.00 49 1011.8
20260504014009 12 322 0.0 3.2 0.00 0.00 0.00 48 1011.7
20260504013513 12 323 0.0 4.8 0.00 0.00 0.00 48 1011.6
20260504013030 12 271 0.0 4.8 0.00 0.00 0.00 46 1011.7
20260504012509 12 306 0.0 6.4 0.00 0.00 0.00 45 1011.8
20260504012006 12 265 0.0 8.0 0.00 0.00 0.00 45 1011.8
20260504011527 12 57 1.6 8.0 0.00 0.00 0.00 45 1012.0
20260504011009 12 280 1.6 12.9 0.00 0.00 0.00 44 1012.0
20260504010503 12 275 1.6 12.9 0.00 0.00 0.00 45 1012.0
20260504010012 12 17 0.0 3.2 0.00 0.00 0.00 46 1011.9
20260504005503 12 105 1.6 3.2 0.00 0.00 0.00 45 1011.7
20260504005006 12 314 0.0 3.2 0.00 0.00 0.00 45 1011.6
20260504004533 12 65 0.0 3.2 0.00 0.00 0.00 44 1011.4
20260504004005 12 128 0.0 8.0 0.00 0.00 0.00 43 1011.4
20260504003502 12 146 0.0 8.0 0.00 0.00 0.00 43 1011.4
20260504003004 12 225 1.6 4.8 0.00 0.00 0.00 41 1011.2
20260504002502 12 51 0.0 11.3 0.00 0.00 0.00 43 1011.1
20260504002003 12 55 0.0 11.3 0.00 0.00 0.00 44 1011.0
20260504001512 12 133 3.2 9.7 0.00 0.00 0.00 42 1010.7
20260504001002 12 57 0.0 6.4 0.00 0.00 0.00 44 1011.0
20260504000504 12 144 1.6 6.4 0.00 0.00 0.00 44 1011.0
20260504000011 12 123 1.6 6.4 0.00 0.00 0.00 45 1011.2
20260503235502 12 152 1.6 3.2 0.00 0.00 0.00 46 1011.3
20260503235005 12 317 0.0 4.8 0.00 0.00 0.00 44 1011.2
20260503234518 12 289 0.0 9.7 0.00 0.00 0.00 44 1011.3
20260503234006 12 227 1.6 9.7 0.00 0.00 0.00 42 1011.5
20260503233509 12 173 1.6 8.0 0.00 0.00 0.00 43 1011.3
20260503233004 12 302 0.0 3.2 0.00 0.00 0.00 44 1011.3
20260503232502 12 279 0.0 3.2 0.00 0.00 0.00 46 1011.0
20260503232002 12 270 0.0 4.8 0.00 0.00 0.00 43 1011.0
20260503231506 12 106 0.0 4.8 0.00 0.00 0.00 43 1010.8
20260503231004 12 201 1.6 3.2 0.00 0.00 0.00 44 1010.8
20260503230503 12 122 0.0 3.2 0.00 0.00 0.00 45 1010.8
20260503230010 13 122 0.0 3.2 0.00 0.00 0.00 44 1010.6
20260503225503 13 126 0.0 3.2 0.00 0.00 0.00 43 1010.6
20260503225003 13 126 0.0 3.2 0.00 0.00 0.00 43 1010.5
20260503224511 13 126 0.0 3.2 0.00 0.00 0.00 48 1010.6
20260503224005 13 126 0.0 3.2 0.00 0.00 0.00 41 1010.6
20260503223508 13 126 0.0 3.2 0.00 0.00 0.00 42 1010.5
20260503223016 12 126 0.0 3.2 0.00 0.00 0.00 42 1010.6
20260503222507 12 126 0.0 3.2 0.00 0.00 0.00 40 1010.6
20260503222007 12 107 0.0 3.2 0.00 0.00 0.00 43 1010.7
20260503221503 12 117 0.0 3.2 0.00 0.00 0.00 42 1010.7
20260503221002 13 121 0.0 3.2 0.00 0.00 0.00 43 1010.7
20260503220502 13 122 0.0 3.2 0.00 0.00 0.00 40 1010.7
20260503220019 13 122 0.0 3.2 0.00 0.00 0.00 39 1010.8
20260503215502 13 26 0.0 3.2 0.00 0.00 0.00 38 1010.9